Dixon AP, Dixon, WY, WY

5:58 AM MST on November 18, 2017 (GMT -0700)
Dixon AP, Dixon, WY

Weather History for KDWX - January, 2014

Change the Weather History Date:

Saturday, January 25, 2014

  Actual Average (KCAG) Record (KCAG)
Temperature  
Mean Temperature 22 °F -  
Max Temperature 40 °F 29 °F 44 °F (2005)
Min Temperature 4 °F 7 °F -9 °F (1997)
Degree Days  
Heating Degree Days 43    
Moisture  
Dew Point 6 °F    
Average Humidity 59    
Maximum Humidity 77    
Minimum Humidity 27    
Precipitation  
Precipitation 0.00 in - - ()
Sea Level Pressure  
Sea Level Pressure 30.28 in    
Wind  
Wind Speed 2 mph (ENE)    
Max Wind Speed 10 mph    
Max Gust Speed -    
Visibility 10 miles    
Events      
Averages and records for this station are not official NWS values.
T = Trace of Precipitation, MM = Missing Value Source: NWS Daily Summary

Daily Weather History Graph

Daily Weather History Graph

Search for Another Location

Airport or City:

Trip Planner

Search our weather history database for the weather conditions in past years. The results will help you decide how hot, cold, wet, or windy it might be!

Date:

Astronomy

Jan. 25, 2014 Rise Set
Actual Time 7:26 AM MST 5:18 PM MST
Civil Twilight 6:57 AM MST 5:48 PM MST
Nautical Twilight 6:23 AM MST 6:21 PM MST
Astronomical Twilight 5:51 AM MST 6:53 PM MST
Moon 2:01 AM MST (1/25) 12:21 PM MST (1/25)
Length of Visible Light 10h 50m
Length of Day
9h 51m
Waning Crescent, 33% of the Moon is Illuminated
Jan 25
Waning Crescent
Jan 30
New
Feb 6
First Quarter
Feb 14
Full
Feb 22
Last Quarter

Hourly Weather History & Observations

Time (MST) Temp. Windchill Dew Point Humidity Pressure Visibility Wind Dir Wind Speed Gust Speed Precip Events Conditions
12:15 AM 10.9 °F 4.7 °F 2.7 °F 69% 30.42 in 10.0 mi ESE 3.5 mph - N/A   Clear
12:35 AM 7.2 °F -3.0 °F -0.6 °F 71% 30.42 in 10.0 mi ENE 5.8 mph - N/A   Clear
12:55 AM 10.8 °F 2.7 °F 1.6 °F 67% 30.42 in 10.0 mi South 4.6 mph - N/A   Clear
1:15 AM 8.2 °F - -0.0 °F 69% 30.41 in 10.0 mi Calm Calm - N/A   Clear
1:35 AM 11.3 °F - 1.8 °F 66% 30.41 in 10.0 mi Calm Calm - N/A   Clear
1:55 AM 9.5 °F - 1.0 °F 69% 30.41 in 10.0 mi Calm Calm - N/A   Clear
2:15 AM 10.0 °F - 1.6 °F 69% 30.40 in 10.0 mi Calm Calm - N/A   Clear
2:35 AM 10.8 °F - 0.9 °F 64% 30.41 in 10.0 mi Calm Calm - N/A   Clear
2:55 AM 9.1 °F 2.6 °F 0.7 °F 69% 30.40 in 10.0 mi North 3.5 mph - N/A   Clear
3:15 AM 6.4 °F - -0.8 °F 72% 30.39 in 10.0 mi Calm Calm - N/A   Clear
3:35 AM 9.5 °F - 1.0 °F 69% 30.39 in 10.0 mi Calm Calm - N/A   Clear
3:55 AM 5.9 °F - -1.3 °F 72% 30.38 in 10.0 mi Calm Calm - N/A   Clear
4:15 AM 5.2 °F - -1.5 °F 74% 30.37 in 10.0 mi Calm Calm - N/A   Clear
4:35 AM 5.2 °F - -1.8 °F 73% 30.37 in 10.0 mi Calm Calm - N/A   Clear
4:55 AM 4.1 °F - -2.0 °F 76% 30.37 in 10.0 mi Calm Calm - N/A   Clear
5:15 AM 6.1 °F - -0.2 °F 75% 30.37 in 10.0 mi Calm Calm - N/A   Clear
5:35 AM 5.5 °F -5.0 °F -1.8 °F 72% 30.37 in 10.0 mi ENE 5.8 mph - N/A   Clear
5:55 AM 5.4 °F - -0.9 °F 75% 30.36 in 10.0 mi Calm Calm - N/A   Clear
6:15 AM 6.3 °F -0.7 °F -1.3 °F 71% 30.37 in 10.0 mi NE 3.5 mph - N/A   Clear
6:35 AM 7.0 °F -3.3 °F -0.9 °F 70% 30.36 in 10.0 mi NE 5.8 mph - N/A   Clear
6:55 AM 8.4 °F 1.8 °F -0.0 °F 68% 30.37 in 10.0 mi ESE 3.5 mph - N/A   Clear
7:15 AM 7.7 °F -0.9 °F 0.3 °F 72% 30.36 in 10.0 mi East 4.6 mph - N/A   Clear
7:35 AM 7.9 °F 1.2 °F 0.5 °F 72% 30.36 in 10.0 mi ENE 3.5 mph - N/A   Clear
7:55 AM 6.6 °F - -0.8 °F 72% 30.36 in 10.0 mi Calm Calm - N/A   Clear
8:15 AM 9.5 °F - -0.2 °F 65% 30.36 in 10.0 mi Calm Calm - N/A   Clear
8:35 AM 8.2 °F - -0.4 °F 68% 30.36 in 10.0 mi Calm Calm - N/A   Clear
8:55 AM 10.0 °F - 1.4 °F 68% 30.35 in 10.0 mi Calm Calm - N/A   Clear
9:15 AM 14.2 °F - 2.5 °F 60% 30.35 in 10.0 mi Calm Calm - N/A   Clear
9:35 AM 14.9 °F - 4.8 °F 64% 30.35 in 10.0 mi Calm Calm - N/A   Clear
9:55 AM 18.0 °F - 4.8 °F 57% 30.35 in 10.0 mi Calm Calm - N/A   Clear
10:15 AM 20.8 °F - 5.2 °F 51% 30.35 in 10.0 mi Calm Calm - N/A   Clear
10:35 AM 22.1 °F - 7.3 °F 53% 30.35 in 10.0 mi Calm Calm - N/A   Clear
10:55 AM 26.2 °F - 7.0 °F 44% 30.34 in 10.0 mi Calm Calm - N/A   Clear
11:15 AM 25.9 °F - 10.8 °F 53% 30.33 in 10.0 mi Calm Calm - N/A   Clear
11:35 AM 27.7 °F - 10.6 °F 49% 30.32 in 10.0 mi Calm Calm - N/A   Clear
11:55 AM 32.4 °F - 10.9 °F 41% 30.30 in 10.0 mi Calm Calm - N/A   Clear
12:15 PM 32.0 °F - 9.0 °F 38% 30.29 in 10.0 mi Calm Calm - N/A   Clear
12:35 PM 34.9 °F - 13.1 °F 41% 30.27 in 10.0 mi Calm Calm - N/A   Clear
12:55 PM 37.2 °F - 12.6 °F 36% 30.26 in 10.0 mi Calm Calm - N/A   Clear
1:15 PM 39.0 °F - 11.8 °F 33% 30.24 in 10.0 mi Calm Calm - N/A   Clear
1:35 PM 38.3 °F - 11.1 °F 33% 30.24 in 10.0 mi Calm Calm - N/A   Clear
1:55 PM 40.5 °F 34.1 °F 9.0 °F 27% 30.23 in 10.0 mi SW 10.4 mph - N/A   Clear
2:15 PM 40.6 °F 34.8 °F 10.6 °F 29% 30.21 in 10.0 mi SW 9.2 mph - N/A   Clear
2:35 PM 40.5 °F 34.6 °F 10.9 °F 30% 30.21 in 10.0 mi SW 9.2 mph - N/A   Clear
2:55 PM 40.3 °F 34.9 °F 12.9 °F 33% 30.20 in 10.0 mi SW 8.1 mph - N/A   Clear
3:15 PM 40.6 °F 35.4 °F 12.2 °F 31% 30.20 in 10.0 mi WSW 8.1 mph - N/A   Clear
3:35 PM 40.1 °F 34.7 °F 11.3 °F 31% 30.20 in 10.0 mi SW 8.1 mph - N/A   Clear
3:55 PM 39.6 °F 33.5 °F 11.5 °F 32% 30.19 in 10.0 mi SW 9.2 mph - N/A   Clear
4:15 PM 39.4 °F 33.8 °F 10.2 °F 30% 30.18 in 10.0 mi SW 8.1 mph - N/A   Clear
4:35 PM 38.1 °F 34.6 °F 11.8 °F 34% 30.18 in 10.0 mi West 4.6 mph - N/A   Clear
4:55 PM 35.1 °F 32.2 °F 13.5 °F 41% 30.18 in 10.0 mi WSW 3.5 mph - N/A   Clear
5:15 PM 32.0 °F 26.4 °F 14.5 °F 49% 30.18 in 10.0 mi West 5.8 mph - N/A   Clear
5:35 PM 30.6 °F 25.8 °F 13.5 °F 49% 30.18 in 10.0 mi West 4.6 mph - N/A   Clear
5:55 PM 30.6 °F 24.7 °F 12.6 °F 47% 30.17 in 10.0 mi West 5.8 mph - N/A   Clear
6:15 PM 26.4 °F 22.4 °F 12.7 °F 56% 30.17 in 10.0 mi NNW 3.5 mph - N/A   Clear
6:35 PM 25.9 °F - 11.5 °F 55% 30.18 in 10.0 mi Calm Calm - N/A   Clear
6:55 PM 25.0 °F - 11.3 °F 56% 30.18 in 10.0 mi Calm Calm - N/A   Clear
7:15 PM 21.7 °F 15.5 °F 10.2 °F 61% 30.18 in 10.0 mi North 4.6 mph - N/A   Clear
7:35 PM 19.0 °F - 10.0 °F 68% 30.17 in 10.0 mi Calm Calm - N/A   Clear
7:55 PM 16.0 °F 10.4 °F 8.2 °F 72% 30.17 in 10.0 mi NE 3.5 mph - N/A   Clear
8:15 PM 16.2 °F 9.0 °F 9.1 °F 74% 30.17 in 10.0 mi ENE 4.6 mph - N/A   Clear
8:35 PM 16.3 °F 7.8 °F 8.4 °F 71% 30.17 in 10.0 mi NE 5.8 mph - N/A   Clear
8:55 PM 18.1 °F 12.9 °F 8.4 °F 66% 30.17 in 10.0 mi East 3.5 mph - N/A   Clear
9:15 PM 20.8 °F - 10.8 °F 65% 30.17 in 10.0 mi Calm Calm - N/A   Clear
9:35 PM 16.5 °F 9.4 °F 9.0 °F 72% 30.16 in 10.0 mi East 4.6 mph - N/A   Clear
9:55 PM 15.8 °F 10.2 °F 7.5 °F 70% 30.16 in 10.0 mi East 3.5 mph - N/A   Clear
10:15 PM 14.0 °F - 7.3 °F 75% 30.17 in 10.0 mi Calm Calm - N/A   Clear
10:35 PM 15.4 °F - 7.0 °F 69% 30.17 in 10.0 mi Calm Calm - N/A   Clear
10:55 PM 14.0 °F - 6.6 °F 72% 30.17 in 10.0 mi Calm Calm - N/A   Clear
11:15 PM 12.7 °F 6.7 °F 5.7 °F 74% 30.18 in 10.0 mi NNE 3.5 mph - N/A   Clear
11:35 PM 12.9 °F - 6.8 °F 77% 30.18 in 10.0 mi Calm Calm - N/A   Clear
11:55 PM 14.5 °F 5.7 °F 8.1 °F 75% 30.18 in 10.0 mi ESE 5.8 mph - N/A   Clear